sat.trackr.live / text

‹ back to catalog

ONEWEB-0174

NORAD 48072 · 2021-025AG

PAYLOAD ACTIVE UNKNOWN

§ Identity

Operator
Country
UK
Launch date
2021-03-25
Launch site
VOSTO
Launch vehicle
Mass (kg)
RCS (m²)

Purposes: comms

External: N2YO · Heavens-Above · Gunter

§ Orbital elements

Epoch: 2026-09-18T03:28:08.109120Z

Period
109.63 min
Inclination
87.8926°
Eccentricity
0.0001867
Mean motion
13.13468739 rev/d
Perigee alt
1,208.4 km
Apogee alt
1,211.2 km
Semi-major
7,587.9 km
B*
-8.4404e-4
RAAN
301.7294°
Arg perigee
99.2414°
Mean anomaly
260.8926°
Rev number
26,603

§ Raw data

ONEWEB-01741 48072U 21025AG  26261.14453830 -.00000295  00000+0 -84404-3 0  99962 48072  87.8926 301.7294 0001867  99.2414 260.8926 13.13468739266035

JSON: /api/v1/satellites/48072 · /tle

For live sub-satellite position, see the globe view (requires WebGL).

§ Visibility from observer

Set your observer location to see the next 7 days of passes ≥ 10°. The values pass through the URL so the page stays shareable.

No JS? Fill the form by hand. The geolocation button needs JavaScript.